Regional Weather Roundup
Issued by NWS

Home | Current Version | Previous Version | Text Only | Print | Product List | Glossary Off
Versions: 1 2 3 4 5 6 7 8 9 10 11 12 13 14 15 16 17 18 19 20 21 22 23 24 25 26 27 28 29 30 31 32 33 34 35 36 37 38 39 40 41 42 43 44 45 46 47 48 49 50

000
ASUS43 KLMK 080510
RWRKY
KENTUCKY REGIONAL WEATHER ROUNDUP
NATIONAL WEATHER SERVICE LOUISVILLE KY
1200 AM EST THU DEC 08 2016

NOTE "FAIR" INDICATES FEW OR NO CLOUDS BELOW 12,000 FEET
WITH NO SIGNIFICANT WEATHER AND/OR OBSTRUCTIONS TO VISIBILITY.

KYZ001>023-026-027-061>063-070>075-080600-
WESTERN AND SOUTH CENTRAL KENTUCKY

CITY           SKY/WX    TMP DP  RH WIND       PRES   REMARKS
PADUCAH        CLOUDY    37  21  52 NW6       30.30R WCI  32
HENDERSON      CLOUDY    36  21  55 NW8       30.29R WCI  29
OWENSBORO      CLOUDY    35  23  61 NW10      30.28R WCI  27
HOPKINSVILLE   CLOUDY    37  22  56 NW6       30.25R WCI  32
BOWLING GREEN  CLOUDY    37  23  56 NW5       30.24R WCI  33
GLASGOW        CLOUDY    35  22  58 N6        30.21S WCI  30
$$

KYZ024-025-028>034-038-045-046-053-080600-
NORTH CENTRAL KENTUCKY

CITY           SKY/WX    TMP DP  RH WIND       PRES   REMARKS
LOUISVILLE/SDF CLOUDY    36  21  54 NW10      30.21R WCI  28
LOUISVILLE/LOU CLOUDY    36  23  59 NW5       30.22R WCI  32
FORT KNOX      CLOUDY    34  23  65 W6        30.19R WCI  29
$$

KYZ035>037-039>044-047>052-055>060-089>105-080600-
NORTHEAST KENTUCKY

CITY           SKY/WX    TMP DP  RH WIND       PRES   REMARKS
LEXINGTON      CLOUDY    35  22  58 NW6       30.17S WCI  30
COVINGTON      CLOUDY    34  23  64 NW13      30.16S WCI  25
FRANKFORT      CLOUDY    35  22  58 NW5       30.17S WCI  31
$$

KYZ054-064>069-076>088-106>120-080600-
SOUTHEAST KENTUCKY

CITY           SKY/WX    TMP DP  RH WIND       PRES   REMARKS
JACKSON        MOCLDY    35  23  61 NW5       30.14R WCI  31
LONDON         CLOUDY    34  25  69 CALM      30.16R
SOMERSET       MOCLDY    32  27  80 CALM      30.19F
MIDDLESBORO    CLOUDY    39  32  76 NE3       30.15R
MONTICELLO     CLOUDY    34  27  75 N13       30.20S WCI  25
$$




USA.gov is the U.S. government's official web portal to all federal, state and local government web resources and services.